Wind_Speed
11 12 13 13 13 13 13 13 13 14 14 14 14 14 14 13 14 14 15 15 14 14 14 14 14 15 15 16 17 17 17 17 17 17 18 18 18 18 18 18 18 18 18
13 13 14 14 14 14 15 14 14 14 15 15 15 15 15 15 15 15 16 16 15 15 15 16 16 17 17 18 18 19 19 19 19 19 19 19 20 20 21 20 20 21 21
14 14 15 15 15 16 16 15 15 16 16 16 17 17 17 17 17 17 17 16 16 16 17 17 17 17 17 18 19 20 20 21 21 21 21 21 21 22 22 22 22 22 22
14 15 16 16 16 17 17 17 17 16 17 17 18 18 18 19 19 19 19 18 18 18 19 19 19 18 18 19 20 21 21 22 22 22 22 22 23 24 24 24 24 24 23
15 16 17 17 17 17 17 17 18 18 18 19 20 20 20 20 21 20 20 19 19 19 19 19 19 19 20 21 22 22 22 22 23 23 24 24 24 25 25 25 25 24 24
17 17 17 18 19 19 19 19 19 19 19 20 21 21 21 21 21 21 21 20 20 20 20 20 20 22 22 23 24 25 24 24 25 25 25 25 25 25 25 25 25 25 25
19 18 19 19 20 20 20 20 20 20 21 22 23 22 22 22 22 22 21 21 21 21 22 23 23 24 24 25 25 25 25 25 25 25 25 26 26 26 26 25 25 26 25
19 19 19 20 20 21 22 22 22 22 22 23 23 22 23 23 23 23 23 23 23 22 23 24 24 25 25 26 26 26 26 26 27 27 27 27 27 27 27 26 27 27 26
20 20 21 22 22 23 24 24 24 24 24 25 24 24 25 25 24 24 24 25 24 24 25 26 26 27 27 28 28 27 27 27 27 28 28 28 27 27 27 27 27 27 26
22 23 23 24 24 25 25 25 25 26 27 27 26 27 26 26 27 27 27 27 27 27 27 28 28 29 29 29 29 29 29 28 29 29 29 28 28 27 27 27 27 27 27
25 25 25 25 25 26 26 26 27 27 28 27 27 28 28 28 29 29 29 28 29 29 30 30 30 30 31 31 31 31 30 30 29 29 28 28 29 28 28 28 28 28 29
27 27 27 27 27 27 28 28 28 28 29 29 29 29 29 30 30 30 29 29 29 30 30 31 31 31 32 32 32 31 30 30 29 28 28 28 28 28 28 28 29 29 29
28 28 28 28 28 28 29 29 30 30 30 30 30 30 30 30 30 30 30 30 31 31 31 31 31 30 31 31 31 30 30 30 30 29 28 28 28 28 28 28 28 28 28
30 30 30 30 30 30 30 31 31 31 31 30 30 31 31 30 30 30 31 31 31 31 30 30 31 31 30 30 29 29 29 30 29 28 27 27 28 28 28 28 28 29 28
32 31 31 31 31 31 31 31 31 32 31 31 31 31 31 31 31 31 31 31 31 31 31 31 31 31 30 30 29 29 29 29 28 28 28 28 27 28 28 29 29 29 29
32 31 31 32 32 32 32 32 32 32 32 31 31 32 32 32 31 31 31 31 31 30 30 29 30 30 30 29 28 28 27 27 27 28 28 28 28 28 28 29 30 30 30
32 32 32 32 32 33 33 33 33 32 31 31 32 32 32 32 32 32 31 31 30 30 29 29 29 29 29 28 28 28 28 28 28 28 29 29 29 29 29 29 30 30 30
33 33 33 33 33 33 33 33 32 31 31 31 31 32 32 31 31 31 31 30 30 30 29 29 28 28 28 28 28 29 29 29 29 29 29 29 29 29 30 29 30 30 30
31 32 33 33 33 33 32 32 31 30 30 31 31 31 31 30 30 30 30 29 29 30 29 29 28 28 28 29 29 30 30 30 30 30 30 29 29 30 30 29 29 30 30
31 31 32 32 32 32 32 31 31 31 31 31 30 30 30 30 30 30 29 29 30 29 29 29 29 29 29 30 30 30 30 30 30 30 30 30 30 30 30 29 29 29 30
31 31 31 31 31 31 30 30 30 31 31 30 30 30 30 30 30 30 29 28 28 29 29 29 29 29 30 30 30 31 30 30 30 30 30 30 30 30 30 29 29 29 29
30 30 30 30 30 30 30 30 31 30 30 30 30 30 29 29 28 28 27 27 27 28 29 29 30 30 30 30 30 30 30 30 30 30 30 29 29 29 29 29 28 29 29
28 28 29 29 29 29 30 30 29 28 29 29 29 29 28 27 27 27 27 27 28 29 29 29 29 29 29 29 30 29 29 29 29 29 29 29 29 29 29 30 30 30 30
27 27 28 28 28 28 29 29 28 28 28 29 29 29 29 28 28 28 28 28 29 29 29 29 29 29 29 29 29 29 29 29 29 30 30 30 30 30 30 30 30 29 29
25 26 27 27 27 28 28 28 28 29 28 29 28 28 28 28 29 28 28 29 29 29 29 30 30 30 30 30 30 30 30 30 30 30 30 30 30 30 30 30 30 29 29
25 26 26 26 26 27 28 28 28 27 28 28 27 27 28 29 29 29 29 29 30 30 30 31 30 30 30 30 31 31 31 31 30 30 30 29 29 30 30 29 29 28 28
Wind_Direction
310 313 313 313 313 313 313 314 315 316 317 317 317 317 316 313 310 309 308 309 306 306 304 302 298 295 298 298 297 295 296 295 293 294 295 295 296 296 296 293 290 288 286
309 310 310 309 307 305 306 308 308 309 311 313 313 313 312 311 309 309 310 309 305 305 304 306 303 296 296 296 296 295 295 294 292 293 294 294 294 295 296 294 292 290 287
304 305 307 307 305 303 303 303 305 306 307 310 311 311 310 309 308 308 306 306 305 304 303 303 302 299 299 298 298 295 294 294 293 293 293 294 294 294 295 294 292 289 284
297 301 305 306 306 303 301 300 301 301 303 306 308 308 308 306 307 306 304 302 302 301 301 300 299 299 299 299 299 297 296 295 295 293 293 293 292 293 292 291 289 286 281
293 296 299 301 303 304 304 302 301 299 298 301 303 303 303 304 303 303 305 301 299 299 300 300 299 298 300 298 296 296 295 297 298 296 293 292 292 292 290 289 288 286 281
296 295 297 300 301 300 300 301 301 299 298 299 300 300 301 303 302 302 302 298 298 297 298 301 303 301 299 298 297 296 295 296 296 296 295 293 291 290 288 287 287 285 283
294 294 296 298 300 300 299 298 299 299 300 300 301 300 301 303 302 304 303 301 298 296 296 296 298 299 299 297 297 297 296 295 295 295 295 294 292 290 290 288 286 284 283
291 293 295 297 298 298 299 300 299 297 298 300 300 300 301 301 302 302 300 301 298 295 294 293 294 296 296 295 295 295 294 294 294 294 294 293 291 289 288 287 285 282 281
289 291 293 295 296 297 298 297 297 297 298 300 304 302 302 302 302 301 299 298 296 295 294 293 293 293 294 294 293 293 292 293 293 292 293 293 291 289 288 287 285 283 282
288 289 290 293 294 296 297 297 297 298 299 301 301 302 302 302 301 300 299 299 297 295 294 294 294 294 293 292 292 292 292 292 292 292 292 291 291 288 286 285 284 283 283
285 286 288 291 294 295 297 297 298 298 299 300 300 300 300 300 299 299 298 298 297 296 296 295 295 295 293 292 291 291 291 290 290 291 291 291 290 287 284 283 283 283 283
281 283 286 289 292 294 296 296 296 297 297 297 298 298 298 298 298 298 298 299 299 298 297 296 295 294 293 292 292 292 292 290 289 288 289 290 289 287 285 285 285 284 282
280 281 284 287 289 291 292 294 295 296 296 296 297 297 297 297 298 298 298 299 300 299 299 297 297 296 296 295 293 292 291 290 289 288 288 288 288 287 286 286 285 284 283
280 281 284 286 288 289 290 291 292 293 294 295 295 296 296 296 297 298 298 298 298 299 298 298 298 297 297 296 294 293 293 292 291 291 291 289 288 288 287 286 285 285 284
279 280 281 284 286 286 287 288 290 291 291 292 294 295 295 295 296 297 298 297 297 298 298 297 297 296 296 296 294 294 294 295 295 293 293 292 291 290 289 287 286 285 284
278 279 280 282 284 285 286 287 289 290 289 291 293 295 297 296 296 296 296 296 297 297 297 296 295 296 298 297 296 296 295 295 295 294 294 293 290 289 288 288 286 284 283
275 277 278 280 282 284 286 287 288 289 289 291 294 296 297 297 296 296 296 296 297 297 296 296 296 296 297 296 296 296 296 296 295 295 295 294 291 289 287 287 286 284 283
275 276 278 280 282 284 286 287 288 288 290 292 294 295 296 296 296 297 297 297 297 297 296 294 295 296 297 298 298 298 297 296 295 295 295 294 293 291 289 288 286 284 282
276 276 278 279 281 282 285 286 287 288 289 291 293 294 295 297 296 296 297 296 296 296 296 294 295 297 297 298 298 298 297 296 295 295 294 293 292 292 291 290 288 286 283
276 277 277 278 280 281 283 284 286 288 289 290 292 294 295 297 298 297 296 295 295 296 295 296 297 298 298 298 298 298 297 297 296 296 294 293 292 292 292 292 290 288 285
277 278 278 278 281 282 283 284 285 287 288 289 290 293 295 297 297 297 297 295 294 295 296 297 298 300 300 299 298 298 297 296 296 296 295 293 292 291 291 291 290 289 287
276 277 278 279 280 282 282 284 285 286 286 289 291 292 294 294 295 296 296 295 295 296 298 298 298 299 301 301 300 299 297 296 296 296 295 294 293 292 291 290 289 289 287
275 276 278 279 280 281 282 284 285 287 287 288 292 292 292 293 294 296 295 295 295 298 299 299 299 299 300 300 301 301 299 296 294 294 294 293 293 292 291 291 291 290 289
275 276 277 279 280 280 282 284 285 287 288 289 289 292 292 292 293 294 295 295 295 297 298 298 298 298 299 300 301 300 299 297 294 294 295 294 293 293 292 292 292 291 289
276 278 280 281 281 281 282 284 286 288 289 291 290 290 291 291 293 294 295 295 296 297 298 298 297 297 299 301 301 300 298 297 296 296 295 294 294 293 293 293 293 290 288
278 280 282 281 280 281 283 285 287 289 290 290 290 291 291 292 293 294 295 295 296 297 298 298 298 298 298 299 299 299 299 297 296 296 296 295 294 293 292 292 292 291 289
Height
5895 5894 5892 5891 5889 5888 5886 5884 5882 5880 5878 5876 5874 5872 5870 5868 5866 5864 5862 5860 5858 5856 5854 5853 5851 5850 5848 5846 5844 5843 5841 5840 5839 5837 5835 5833 5832 5830 5828 5826 5824 5823 5821
5892 5891 5889 5888 5886 5884 5883 5881 5879 5877 5875 5873 5871 5868 5866 5864 5862 5860 5858 5856 5854 5852 5850 5848 5846 5844 5843 5841 5839 5838 5836 5834 5833 5831 5830 5828 5826 5824 5822 5821 5819 5817 5815
5888 5887 5885 5884 5882 5880 5879 5877 5875 5874 5872 5869 5867 5864 5862 5860 5858 5856 5853 5851 5850 5847 5845 5844 5841 5839 5837 5836 5834 5832 5830 5828 5826 5825 5824 5822 5820 5818 5817 5815 5813 5811 5809
5884 5882 5881 5880 5878 5876 5874 5872 5871 5869 5867 5865 5863 5860 5858 5855 5853 5850 5848 5846 5844 5842 5840 5838 5836 5834 5832 5830 5829 5827 5824 5822 5820 5818 5817 5815 5814 5812 5810 5808 5806 5804 5802
5880 5878 5877 5875 5873 5871 5869 5867 5865 5864 5862 5860 5857 5855 5852 5850 5847 5844 5842 5840 5838 5836 5835 5832 5830 5828 5826 5824 5823 5821 5818 5816 5814 5812 5810 5808 5807 5804 5803 5800 5799 5797 5796
5875 5873 5872 5870 5868 5866 5864 5862 5860 5858 5856 5854 5851 5849 5846 5844 5841 5839 5837 5834 5832 5831 5829 5827 5824 5822 5820 5818 5816 5814 5811 5809 5807 5805 5802 5801 5799 5797 5795 5793 5791 5790 5789
5870 5868 5866 5865 5863 5861 5858 5856 5855 5853 5850 5848 5845 5843 5840 5838 5836 5833 5831 5829 5827 5824 5822 5820 5818 5816 5814 5811 5809 5807 5804 5802 5800 5797 5795 5793 5791 5789 5787 5785 5784 5782 5781
5864 5862 5861 5859 5858 5855 5852 5850 5848 5846 5844 5842 5839 5836 5834 5832 5830 5827 5825 5823 5821 5818 5815 5813 5811 5809 5806 5804 5802 5800 5797 5795 5792 5790 5787 5785 5783 5780 5778 5777 5775 5774 5772
5858 5856 5855 5853 5851 5849 5847 5844 5842 5840 5838 5835 5832 5830 5828 5825 5823 5820 5818 5816 5813 5811 5808 5806 5804 5801 5799 5796 5794 5791 5789 5787 5784 5782 5779 5777 5774 5772 5770 5768 5766 5765 5764
5852 5850 5848 5847 5845 5843 5840 5838 5835 5833 5830 5828 5826 5823 5821 5818 5816 5814 5811 5809 5806 5803 5801 5798 5795 5793 5790 5787 5785 5783 5781 5778 5776 5773 5771 5768 5766 5763 5761 5759 5758 5756 5755
5845 5843 5841 5840 5838 5836 5833 5831 5828 5826 5823 5821 5818 5816 5813 5811 5808 5806 5803 5801 5798 5795 5793 5790 5787 5784 5781 5779 5776 5774 5771 5769 5766 5764 5761 5759 5757 5755 5752 5751 5749 5747 5746
5837 5835 5834 5832 5830 5828 5826 5823 5820 5818 5816 5813 5811 5808 5806 5803 5800 5798 5795 5792 5789 5786 5784 5781 5778 5775 5772 5770 5767 5764 5762 5759 5757 5755 5753 5750 5748 5746 5744 5742 5740 5738 5736
5828 5827 5826 5824 5822 5820 5818 5816 5813 5810 5808 5806 5803 5800 5798 5795 5792 5790 5787 5783 5780 5777 5774 5771 5769 5766 5763 5760 5758 5755 5752 5749 5747 5745 5744 5741 5739 5737 5735 5733 5731 5729 5727
5820 5819 5817 5815 5814 5812 5809 5807 5805 5802 5800 5797 5795 5792 5789 5786 5784 5781 5778 5775 5772 5768 5766 5763 5760 5757 5754 5752 5749 5746 5743 5740 5737 5736 5734 5732 5729 5727 5725 5723 5722 5720 5719
5810 5809 5808 5806 5804 5803 5800 5798 5796 5794 5791 5789 5786 5784 5781 5778 5775 5772 5769 5766 5763 5760 5757 5754 5751 5748 5746 5743 5740 5737 5735 5732 5729 5727 5725 5723 5720 5718 5716 5714 5712 5711 5709
5801 5800 5798 5797 5795 5793 5791 5789 5787 5785 5782 5780 5777 5775 5772 5769 5765 5763 5760 5757 5754 5751 5748 5746 5743 5740 5737 5735 5732 5729 5726 5724 5721 5719 5716 5714 5711 5709 5706 5704 5702 5701 5699
5791 5790 5789 5787 5786 5784 5781 5779 5778 5776 5773 5771 5769 5766 5763 5760 5757 5754 5751 5749 5746 5743 5740 5738 5735 5732 5729 5726 5723 5721 5718 5716 5713 5710 5707 5705 5702 5699 5697 5695 5693 5691 5689
5781 5780 5779 5777 5776 5774 5772 5770 5768 5766 5764 5762 5760 5757 5754 5751 5748 5745 5742 5740 5737 5734 5732 5729 5726 5724 5721 5718 5715 5712 5709 5707 5704 5701 5698 5696 5693 5690 5688 5685 5683 5681 5679
5770 5770 5769 5767 5766 5764 5763 5761 5759 5757 5755 5753 5750 5748 5745 5741 5739 5736 5733 5731 5728 5726 5723 5721 5718 5715 5712 5709 5706 5703 5700 5697 5694 5692 5689 5686 5683 5681 5678 5675 5673 5671 5669
5761 5760 5758 5757 5756 5755 5753 5752 5750 5747 5745 5743 5741 5739 5736 5733 5730 5727 5724 5722 5719 5717 5714 5712 5709 5706 5703 5700 5697 5694 5691 5688 5685 5682 5679 5676 5674 5671 5668 5666 5663 5661 5659
5751 5750 5748 5747 5747 5746 5744 5743 5741 5738 5736 5733 5732 5729 5727 5724 5721 5719 5716 5713 5711 5708 5706 5703 5700 5697 5694 5691 5688 5685 5682 5679 5676 5673 5670 5667 5664 5662 5659 5656 5654 5651 5649
5741 5740 5739 5738 5738 5737 5735 5733 5731 5729 5727 5725 5723 5720 5718 5716 5713 5710 5708 5705 5703 5700 5697 5694 5691 5688 5685 5681 5678 5675 5672 5669 5666 5663 5660 5657 5655 5652 5650 5647 5644 5642 5639
5731 5730 5730 5729 5728 5727 5726 5724 5722 5720 5719 5717 5715 5713 5710 5707 5705 5702 5699 5697 5694 5691 5688 5685 5682 5679 5676 5672 5669 5666 5663 5659 5657 5654 5651 5648 5646 5643 5640 5638 5635 5632 5630
5721 5721 5721 5720 5719 5718 5716 5715 5713 5712 5710 5708 5706 5704 5702 5699 5697 5694 5691 5688 5686 5683 5680 5677 5674 5671 5667 5664 5660 5657 5654 5650 5647 5644 5642 5639 5636 5633 5631 5628 5625 5622 5620
5713 5712 5712 5711 5710 5709 5708 5706 5705 5703 5701 5699 5697 5695 5693 5690 5688 5685 5683 5680 5677 5674 5671 5667 5664 5662 5659 5655 5652 5648 5645 5641 5638 5635 5632 5629 5627 5624 5621 5618 5615 5613 5610
5704 5704 5703 5702 5701 5700 5699 5698 5697 5695 5693 5691 5689 5687 5684 5682 5679 5677 5674 5671 5668 5665 5662 5658 5655 5652 5649 5646 5642 5639 5635 5632 5628 5625 5622 5620 5617 5614 5611 5609 5606 5603 5601